User: anonymous   Login
Location: Unspecified
(0.0000°N, 0.0000°E)
Time: 09:18:32
(UTC+00:00)
Language:

ATEX - Orbit

View from above orbital plane
View from above orbital plane
View from above satellite
View from above satellite

Ground track
Ground track

The orbit data is extracted from the following two-line orbital elements,

1 25489U 98055A   20047.86089364  .00000085  00000-0  16935-4 0  9993
2 25489  84.9817 274.0298 0011395  93.1843 267.0663 14.48743171128658
Epoch (UTC): 16 February 2020 20:39:41
Eccentricity: 0.0011395
inclination: 84.9817°
perigee height: 721 km
apogee height: 738 km
right ascension of ascending node: 274.0298°
argument of perigee: 93.1843°
revolutions per day: 14.48743171
mean anomaly at epoch: 267.0663°
orbit number at epoch: 12865

The dashed part of the orbit path shows where the satellite is in the earth's shadow,  

DLR